Year,Month,Day,Hour,Minute,Value (Times are PST for temperature in C)
2008,04,24,00,00,4.40
2008,04,24,00,01,4.40
2008,04,24,00,02,4.30
2008,04,24,00,03,4.30
2008,04,24,00,04,4.30
2008,04,24,00,05,4.30
2008,04,24,00,06,4.30
2008,04,24,00,07,4.30
2008,04,24,00,08,4.30
2008,04,24,00,09,4.20
2008,04,24,00,10,4.20
2008,04,24,00,11,4.20
2008,04,24,00,12,4.10
2008,04,24,00,13,4.10
2008,04,24,00,14,4.10
2008,04,24,00,15,4.00
2008,04,24,00,16,3.90
2008,04,24,00,17,3.90
2008,04,24,00,18,3.90
2008,04,24,00,19,3.90
2008,04,24,00,20,3.90
2008,04,24,00,21,3.90
2008,04,24,00,22,3.90
2008,04,24,00,23,4.00
2008,04,24,00,24,4.00
2008,04,24,00,25,4.00
2008,04,24,00,26,4.00
2008,04,24,00,27,4.00
2008,04,24,00,28,3.90
2008,04,24,00,29,3.90
2008,04,24,00,30,3.90
2008,04,24,00,31,3.80
2008,04,24,00,32,3.80
2008,04,24,00,33,3.80
2008,04,24,00,34,3.80
2008,04,24,00,35,3.80
2008,04,24,00,36,3.80
2008,04,24,00,37,3.80
2008,04,24,00,38,3.80
2008,04,24,00,39,3.70
2008,04,24,00,40,3.70
2008,04,24,00,41,3.70
2008,04,24,00,42,3.70
2008,04,24,00,43,3.70
2008,04,24,00,44,3.80
2008,04,24,00,45,3.70
2008,04,24,00,46,3.80
2008,04,24,00,47,3.80
2008,04,24,00,48,3.80
2008,04,24,00,49,3.80
2008,04,24,00,50,3.90
2008,04,24,00,51,3.90
2008,04,24,00,52,4.00
2008,04,24,00,53,4.10
2008,04,24,00,54,4.10
2008,04,24,00,55,4.10
2008,04,24,00,56,4.10
2008,04,24,00,57,4.10
2008,04,24,00,58,4.00
2008,04,24,00,59,4.00
2008,04,24,01,00,3.90
2008,04,24,01,01,3.90
2008,04,24,01,02,3.90
2008,04,24,01,03,3.90
2008,04,24,01,04,3.90
2008,04,24,01,05,3.90
2008,04,24,01,06,3.90
2008,04,24,01,07,3.90
2008,04,24,01,08,4.00
2008,04,24,01,09,4.00
2008,04,24,01,10,3.90
2008,04,24,01,11,3.90
2008,04,24,01,12,3.90
2008,04,24,01,13,3.90
2008,04,24,01,14,3.90
2008,04,24,01,15,3.90
2008,04,24,01,16,3.90
2008,04,24,01,17,3.90
2008,04,24,01,18,3.90
2008,04,24,01,19,3.90
2008,04,24,01,20,3.90
2008,04,24,01,21,3.90
2008,04,24,01,22,4.00
2008,04,24,01,23,4.00
2008,04,24,01,24,4.00
2008,04,24,01,25,4.10
2008,04,24,01,26,4.10
2008,04,24,01,27,4.00
2008,04,24,01,28,4.00
2008,04,24,01,29,4.10
2008,04,24,01,30,4.10
2008,04,24,01,31,4.10
2008,04,24,01,32,4.10
2008,04,24,01,33,4.20
2008,04,24,01,34,4.20
2008,04,24,01,35,4.20
2008,04,24,01,36,4.20
2008,04,24,01,37,4.20
2008,04,24,01,38,4.20
2008,04,24,01,39,4.20
2008,04,24,01,40,4.20
2008,04,24,01,41,4.20
2008,04,24,01,42,4.20
2008,04,24,01,43,4.20
2008,04,24,01,44,4.20
2008,04,24,01,45,4.20
2008,04,24,01,46,4.20
2008,04,24,01,47,4.20
2008,04,24,01,48,4.20
2008,04,24,01,49,4.20
2008,04,24,01,50,4.20
2008,04,24,01,51,4.30
2008,04,24,01,52,4.30
2008,04,24,01,53,4.30
2008,04,24,01,54,4.30
2008,04,24,01,55,4.30
2008,04,24,01,56,4.30
2008,04,24,01,57,4.30
2008,04,24,01,58,4.30
2008,04,24,01,59,4.30
2008,04,24,02,00,4.30
2008,04,24,02,01,4.30
2008,04,24,02,02,4.30
2008,04,24,02,03,4.30
2008,04,24,02,04,4.30
2008,04,24,02,05,4.30
2008,04,24,02,06,4.30
2008,04,24,02,07,4.30
2008,04,24,02,08,4.30
2008,04,24,02,09,4.30
2008,04,24,02,10,4.40
2008,04,24,02,11,4.40
2008,04,24,02,12,4.30
2008,04,24,02,13,4.40
2008,04,24,02,14,4.40
2008,04,24,02,15,4.40
2008,04,24,02,16,4.40
2008,04,24,02,17,4.40
2008,04,24,02,18,4.40
2008,04,24,02,19,4.40
2008,04,24,02,20,4.40
2008,04,24,02,21,4.40
2008,04,24,02,22,4.30
2008,04,24,02,23,4.30
2008,04,24,02,24,4.40
2008,04,24,02,25,4.40
2008,04,24,02,26,4.40
2008,04,24,02,27,4.40
2008,04,24,02,28,4.40
2008,04,24,02,29,4.40
2008,04,24,02,30,4.40
2008,04,24,02,31,4.40
2008,04,24,02,32,4.40
2008,04,24,02,33,4.50
2008,04,24,02,34,4.50
2008,04,24,02,35,4.60
2008,04,24,02,36,4.60
2008,04,24,02,37,4.60
2008,04,24,02,38,4.60
2008,04,24,02,39,4.60
2008,04,24,02,40,4.60
2008,04,24,02,41,4.70
2008,04,24,02,42,4.70
2008,04,24,02,43,4.70
2008,04,24,02,44,4.70
2008,04,24,02,45,4.70
2008,04,24,02,46,4.70
2008,04,24,02,47,4.60
2008,04,24,02,48,4.60
2008,04,24,02,49,4.50
2008,04,24,02,50,4.50
2008,04,24,02,51,4.50
2008,04,24,02,52,4.50
2008,04,24,02,53,4.40
2008,04,24,02,54,4.40
2008,04,24,02,55,4.40
2008,04,24,02,56,4.30
2008,04,24,02,57,4.40
2008,04,24,02,58,4.50
2008,04,24,02,59,4.60
2008,04,24,03,00,4.60
2008,04,24,03,01,4.60
2008,04,24,03,02,4.60
2008,04,24,03,03,4.60
2008,04,24,03,04,4.60
2008,04,24,03,05,4.60
2008,04,24,03,06,4.60
2008,04,24,03,07,4.60
2008,04,24,03,08,4.60
2008,04,24,03,09,4.70
2008,04,24,03,10,4.70
2008,04,24,03,11,4.80
2008,04,24,03,12,4.80
2008,04,24,03,13,4.80
2008,04,24,03,14,4.80
2008,04,24,03,15,4.80
2008,04,24,03,16,4.80
2008,04,24,03,17,4.90
2008,04,24,03,18,4.90
2008,04,24,03,19,4.90
2008,04,24,03,20,4.90
2008,04,24,03,21,4.90
2008,04,24,03,22,4.90
2008,04,24,03,23,4.80
2008,04,24,03,24,4.80
2008,04,24,03,25,4.70
2008,04,24,03,26,4.70
2008,04,24,03,27,4.60
2008,04,24,03,28,4.60
2008,04,24,03,29,4.50
2008,04,24,03,30,4.60
2008,04,24,03,31,4.60
2008,04,24,03,32,4.70
2008,04,24,03,33,4.70
2008,04,24,03,34,4.80
2008,04,24,03,35,4.80
2008,04,24,03,36,4.80
2008,04,24,03,37,4.80
2008,04,24,03,38,4.70
2008,04,24,03,39,4.70
2008,04,24,03,40,4.70
2008,04,24,03,41,4.70
2008,04,24,03,42,4.70
2008,04,24,03,43,4.70
2008,04,24,03,44,4.70
2008,04,24,03,45,4.70
2008,04,24,03,46,4.70
2008,04,24,03,47,4.80
2008,04,24,03,48,4.80
2008,04,24,03,49,4.80
2008,04,24,03,50,4.80
2008,04,24,03,51,4.80
2008,04,24,03,52,4.80
2008,04,24,03,53,4.80
2008,04,24,03,54,4.80
2008,04,24,03,55,4.80
2008,04,24,03,56,4.90
2008,04,24,03,57,4.90
2008,04,24,03,58,4.90
2008,04,24,03,59,4.80
2008,04,24,04,00,4.80
2008,04,24,04,01,4.80
2008,04,24,04,02,4.80
2008,04,24,04,03,4.80
2008,04,24,04,04,4.80
2008,04,24,04,05,4.70
2008,04,24,04,06,4.70
2008,04,24,04,07,4.70
2008,04,24,04,08,4.70
2008,04,24,04,09,4.60
2008,04,24,04,10,4.60
2008,04,24,04,11,4.60
2008,04,24,04,12,4.60
2008,04,24,04,13,4.80
2008,04,24,04,14,4.90
2008,04,24,04,15,4.90
2008,04,24,04,16,4.90
2008,04,24,04,17,4.90
2008,04,24,04,18,5.00
2008,04,24,04,19,4.90
2008,04,24,04,20,4.90
2008,04,24,04,21,4.90
2008,04,24,04,22,4.90
2008,04,24,04,23,4.80
2008,04,24,04,24,4.80
2008,04,24,04,25,4.70
2008,04,24,04,26,4.60
2008,04,24,04,27,4.60
2008,04,24,04,28,4.60
2008,04,24,04,29,4.50
2008,04,24,04,30,4.60
2008,04,24,04,31,4.60
2008,04,24,04,32,4.50
2008,04,24,04,33,4.50
2008,04,24,04,34,4.50
2008,04,24,04,35,4.60
2008,04,24,04,36,4.70
2008,04,24,04,37,4.80
2008,04,24,04,38,4.80
2008,04,24,04,39,4.80
2008,04,24,04,40,4.80
2008,04,24,04,41,4.80
2008,04,24,04,42,4.70
2008,04,24,04,43,4.70
2008,04,24,04,44,4.70
2008,04,24,04,45,4.60
2008,04,24,04,46,4.60
2008,04,24,04,47,4.60
2008,04,24,04,48,4.50
2008,04,24,04,49,4.50
2008,04,24,04,50,4.50
2008,04,24,04,51,4.50
2008,04,24,04,52,4.40
2008,04,24,04,53,4.40
2008,04,24,04,54,4.40
2008,04,24,04,55,4.40
2008,04,24,04,56,4.40
2008,04,24,04,57,4.40
2008,04,24,04,58,4.30
2008,04,24,04,59,4.30
2008,04,24,05,00,4.30
2008,04,24,05,01,4.30
2008,04,24,05,02,4.20
2008,04,24,05,03,4.20
2008,04,24,05,04,4.20
2008,04,24,05,05,4.20
2008,04,24,05,06,4.20
2008,04,24,05,07,4.10
2008,04,24,05,08,4.10
2008,04,24,05,09,4.10
2008,04,24,05,10,4.10
2008,04,24,05,11,4.10
2008,04,24,05,12,4.30
2008,04,24,05,13,4.50
2008,04,24,05,14,4.60
2008,04,24,05,15,4.70
2008,04,24,05,16,4.70
2008,04,24,05,17,4.90
2008,04,24,05,18,5.00
2008,04,24,05,19,4.90
2008,04,24,05,20,4.90
2008,04,24,05,21,5.10
2008,04,24,05,22,5.00
2008,04,24,05,23,5.00
2008,04,24,05,24,5.00
2008,04,24,05,25,5.00
2008,04,24,05,26,5.10
2008,04,24,05,27,5.10
2008,04,24,05,28,5.10
2008,04,24,05,29,5.00
2008,04,24,05,30,5.00
2008,04,24,05,31,5.00
2008,04,24,05,32,5.10
2008,04,24,05,33,5.20
2008,04,24,05,34,5.50
2008,04,24,05,35,5.70
2008,04,24,05,36,5.70
2008,04,24,05,37,5.60
2008,04,24,05,38,5.50
2008,04,24,05,39,5.20
2008,04,24,05,40,5.20
2008,04,24,05,41,5.10
2008,04,24,05,42,5.10
2008,04,24,05,43,5.00
2008,04,24,05,44,5.00
2008,04,24,05,45,5.10
2008,04,24,05,46,5.20
2008,04,24,05,47,5.20
2008,04,24,05,48,5.20
2008,04,24,05,49,5.20
2008,04,24,05,50,5.20
2008,04,24,05,51,5.20
2008,04,24,05,52,5.10
2008,04,24,05,53,5.10
2008,04,24,05,54,5.10
2008,04,24,05,55,5.00
2008,04,24,05,56,5.00
2008,04,24,05,57,4.90
2008,04,24,05,58,4.90
2008,04,24,05,59,4.80
2008,04,24,06,00,4.80
2008,04,24,06,01,4.90
2008,04,24,06,02,5.20
2008,04,24,06,03,5.60
2008,04,24,06,04,5.90
2008,04,24,06,05,6.10
2008,04,24,06,06,6.40
2008,04,24,06,07,6.50
2008,04,24,06,08,6.70
2008,04,24,06,09,6.70
2008,04,24,06,10,6.90
2008,04,24,06,11,7.20
2008,04,24,06,12,7.30
2008,04,24,06,13,7.40
2008,04,24,06,14,7.40
2008,04,24,06,15,7.20
2008,04,24,06,16,7.10
2008,04,24,06,17,6.90
2008,04,24,06,18,6.80
2008,04,24,06,19,6.70
2008,04,24,06,20,6.60
2008,04,24,06,21,6.50
2008,04,24,06,22,6.40
2008,04,24,06,23,6.40
2008,04,24,06,24,6.30
2008,04,24,06,25,6.40
2008,04,24,06,26,6.30
2008,04,24,06,27,6.30
2008,04,24,06,28,6.30
2008,04,24,06,29,6.30
2008,04,24,06,30,6.30
2008,04,24,06,31,6.40
2008,04,24,06,32,6.40
2008,04,24,06,33,6.40
2008,04,24,06,34,6.50
2008,04,24,06,35,6.50
2008,04,24,06,36,6.50
2008,04,24,06,37,6.50
2008,04,24,06,38,6.50
2008,04,24,06,39,6.60
2008,04,24,06,40,6.60
2008,04,24,06,41,6.60
2008,04,24,06,42,6.70
2008,04,24,06,43,6.70
2008,04,24,06,44,6.70
2008,04,24,06,45,6.70
2008,04,24,06,46,6.60
2008,04,24,06,47,6.70
2008,04,24,06,48,6.70
2008,04,24,06,49,6.70
2008,04,24,06,50,6.70
2008,04,24,06,51,6.70
2008,04,24,06,52,6.70
2008,04,24,06,53,6.70
2008,04,24,06,54,6.70
2008,04,24,06,55,6.70
2008,04,24,06,56,6.70
2008,04,24,06,57,6.70
2008,04,24,06,58,6.70
2008,04,24,06,59,6.80
2008,04,24,07,00,6.80
2008,04,24,07,01,6.90
2008,04,24,07,02,7.00
2008,04,24,07,03,7.00
2008,04,24,07,04,7.10
2008,04,24,07,05,7.10
2008,04,24,07,06,7.20
2008,04,24,07,07,7.20
2008,04,24,07,08,7.20
2008,04,24,07,09,7.20
2008,04,24,07,10,7.20
2008,04,24,07,11,7.30
2008,04,24,07,12,7.30
2008,04,24,07,13,7.40
2008,04,24,07,14,7.40
2008,04,24,07,15,7.50
2008,04,24,07,16,7.50
2008,04,24,07,17,7.60
2008,04,24,07,18,7.60
2008,04,24,07,19,7.70
2008,04,24,07,20,7.70
2008,04,24,07,21,7.80
2008,04,24,07,22,7.80
2008,04,24,07,23,7.90
2008,04,24,07,24,7.90
2008,04,24,07,25,7.90
2008,04,24,07,26,8.00
2008,04,24,07,27,8.00
2008,04,24,07,28,8.00
2008,04,24,07,29,8.00
2008,04,24,07,30,8.10
2008,04,24,07,31,8.10
2008,04,24,07,32,8.10
2008,04,24,07,33,8.10
2008,04,24,07,34,8.10
2008,04,24,07,35,8.10
2008,04,24,07,36,8.00
2008,04,24,07,37,7.90
2008,04,24,07,38,7.90
2008,04,24,07,39,7.90
2008,04,24,07,40,7.90
2008,04,24,07,41,7.90
2008,04,24,07,42,7.90
2008,04,24,07,43,7.90
2008,04,24,07,44,8.00
2008,04,24,07,45,8.00
2008,04,24,07,46,8.10
2008,04,24,07,47,8.10
2008,04,24,07,48,8.20
2008,04,24,07,49,8.20
2008,04,24,07,50,8.20
2008,04,24,07,51,8.20
2008,04,24,07,52,8.30
2008,04,24,07,53,8.30
2008,04,24,07,54,8.30
2008,04,24,07,55,8.30
2008,04,24,07,56,8.30
2008,04,24,07,57,8.30
2008,04,24,07,58,8.30
2008,04,24,07,59,8.30
2008,04,24,08,00,8.20
2008,04,24,08,01,8.20
2008,04,24,08,02,8.20
2008,04,24,08,03,8.10
2008,04,24,08,04,8.10
2008,04,24,08,05,8.10
2008,04,24,08,06,8.10
2008,04,24,08,07,8.10
2008,04,24,08,08,8.10
2008,04,24,08,09,8.10
2008,04,24,08,10,8.20
2008,04,24,08,11,8.20
2008,04,24,08,12,8.20
2008,04,24,08,13,8.20
2008,04,24,08,14,8.30
2008,04,24,08,15,8.30
2008,04,24,08,16,8.30
2008,04,24,08,17,8.30
2008,04,24,08,18,8.40
2008,04,24,08,19,8.40
2008,04,24,08,20,8.50
2008,04,24,08,21,8.70
2008,04,24,08,22,8.70
2008,04,24,08,23,8.70
2008,04,24,08,24,8.70
2008,04,24,08,25,8.60
2008,04,24,08,26,8.60
2008,04,24,08,27,8.60
2008,04,24,08,28,8.50
2008,04,24,08,29,8.50
2008,04,24,08,30,8.50
2008,04,24,08,31,8.50
2008,04,24,08,32,8.50
2008,04,24,08,33,8.50
2008,04,24,08,34,8.50
2008,04,24,08,35,8.60
2008,04,24,08,36,8.60
2008,04,24,08,37,8.60
2008,04,24,08,38,8.60
2008,04,24,08,39,8.70
2008,04,24,08,40,8.70
2008,04,24,08,41,8.70
2008,04,24,08,42,8.70
2008,04,24,08,43,8.70
2008,04,24,08,44,8.70
2008,04,24,08,45,8.70
2008,04,24,08,46,8.80
2008,04,24,08,47,8.80
2008,04,24,08,48,8.90
2008,04,24,08,49,9.00
2008,04,24,08,50,9.10
2008,04,24,08,51,9.20
2008,04,24,08,52,9.20
2008,04,24,08,53,9.20
2008,04,24,08,54,9.10
2008,04,24,08,55,9.20
2008,04,24,08,56,9.20
2008,04,24,08,57,9.20
2008,04,24,08,58,9.20
2008,04,24,08,59,9.20
2008,04,24,09,00,9.20
2008,04,24,09,01,9.20
2008,04,24,09,02,9.20
2008,04,24,09,03,9.20
2008,04,24,09,04,9.20
2008,04,24,09,05,9.20
2008,04,24,09,06,9.20
2008,04,24,09,07,9.20
2008,04,24,09,08,9.20
2008,04,24,09,09,9.20
2008,04,24,09,10,9.30
2008,04,24,09,11,9.30
2008,04,24,09,12,9.30
2008,04,24,09,13,9.30
2008,04,24,09,14,9.40
2008,04,24,09,15,9.40
2008,04,24,09,16,9.40
2008,04,24,09,17,9.40
2008,04,24,09,18,9.50
2008,04,24,09,19,9.50
2008,04,24,09,20,9.50
2008,04,24,09,21,9.50
2008,04,24,09,22,9.40
2008,04,24,09,23,9.40
2008,04,24,09,24,9.50
2008,04,24,09,25,9.50
2008,04,24,09,26,9.50
2008,04,24,09,27,9.60
2008,04,24,09,28,9.60
2008,04,24,09,29,9.60
2008,04,24,09,30,9.60
2008,04,24,09,31,9.60
2008,04,24,09,32,9.50
2008,04,24,09,33,9.50
2008,04,24,09,34,9.50
2008,04,24,09,35,9.50
2008,04,24,09,36,9.50
2008,04,24,09,37,9.50
2008,04,24,09,38,9.60
2008,04,24,09,39,9.60
2008,04,24,09,40,9.60
2008,04,24,09,41,9.60
2008,04,24,09,42,9.60
2008,04,24,09,43,9.60
2008,04,24,09,44,9.60
2008,04,24,09,45,9.60
2008,04,24,09,46,9.70
2008,04,24,09,47,9.70
2008,04,24,09,48,9.70
2008,04,24,09,49,9.70
2008,04,24,09,50,9.70
2008,04,24,09,51,9.80
2008,04,24,09,52,9.80
2008,04,24,09,53,9.90
2008,04,24,09,54,10.00
2008,04,24,09,55,10.10
2008,04,24,09,56,10.10
2008,04,24,09,57,10.10
2008,04,24,09,58,10.00
2008,04,24,09,59,10.10
2008,04,24,10,00,10.10
2008,04,24,10,01,10.20
2008,04,24,10,02,10.20
2008,04,24,10,03,10.30
2008,04,24,10,04,10.20
2008,04,24,10,05,10.30
2008,04,24,10,06,10.30
2008,04,24,10,07,10.40
2008,04,24,10,08,10.40
2008,04,24,10,09,10.40
2008,04,24,10,10,10.30
2008,04,24,10,11,10.30
2008,04,24,10,12,10.40
2008,04,24,10,13,10.40
2008,04,24,10,14,10.30
2008,04,24,10,15,10.30
2008,04,24,10,16,10.30
2008,04,24,10,17,10.20
2008,04,24,10,18,10.20
2008,04,24,10,19,10.20
2008,04,24,10,20,10.20
2008,04,24,10,21,10.20
2008,04,24,10,22,10.20
2008,04,24,10,23,10.20
2008,04,24,10,24,10.30
2008,04,24,10,25,10.30
2008,04,24,10,26,10.40
2008,04,24,10,27,10.40
2008,04,24,10,28,10.50
2008,04,24,10,29,10.50
2008,04,24,10,30,10.50
2008,04,24,10,31,10.50
2008,04,24,10,32,10.50
2008,04,24,10,33,10.50
2008,04,24,10,34,10.60
2008,04,24,10,35,10.50
2008,04,24,10,36,10.50
2008,04,24,10,37,10.50
2008,04,24,10,38,10.50
2008,04,24,10,39,10.40
2008,04,24,10,40,10.40
2008,04,24,10,41,10.40
2008,04,24,10,42,10.40
2008,04,24,10,43,10.40
2008,04,24,10,44,10.40
2008,04,24,10,45,10.40
2008,04,24,10,46,10.30
2008,04,24,10,47,10.30
2008,04,24,10,48,10.30
2008,04,24,10,49,10.30
2008,04,24,10,50,10.30
2008,04,24,10,51,10.30
2008,04,24,10,52,10.40
2008,04,24,10,53,10.50
2008,04,24,10,54,10.50
2008,04,24,10,55,10.60
2008,04,24,10,56,10.60
2008,04,24,10,57,10.60
2008,04,24,10,58,10.60
2008,04,24,10,59,10.60
2008,04,24,11,00,10.60
2008,04,24,11,01,10.60
2008,04,24,11,02,10.60
2008,04,24,11,03,10.60
2008,04,24,11,04,10.50
2008,04,24,11,05,10.40
2008,04,24,11,06,10.50
2008,04,24,11,07,10.50
2008,04,24,11,08,10.50
2008,04,24,11,09,10.50
2008,04,24,11,10,10.50
2008,04,24,11,11,10.50
2008,04,24,11,12,10.60
2008,04,24,11,13,10.60
2008,04,24,11,14,10.60
2008,04,24,11,15,10.60
2008,04,24,11,16,10.60
2008,04,24,11,17,10.70
2008,04,24,11,18,10.60
2008,04,24,11,19,10.60
2008,04,24,11,20,10.60
2008,04,24,11,21,10.60
2008,04,24,11,22,10.60
2008,04,24,11,23,10.60
2008,04,24,11,24,10.60
2008,04,24,11,25,10.50
2008,04,24,11,26,10.50
2008,04,24,11,27,10.50
2008,04,24,11,28,10.60
2008,04,24,11,29,10.60
2008,04,24,11,30,10.70
2008,04,24,11,31,10.70
2008,04,24,11,32,10.70
2008,04,24,11,33,10.80
2008,04,24,11,34,10.80
2008,04,24,11,35,10.80
2008,04,24,11,36,10.80
2008,04,24,11,37,10.80
2008,04,24,11,38,10.80
2008,04,24,11,39,10.80
2008,04,24,11,40,10.80
2008,04,24,11,41,10.80
2008,04,24,11,42,10.80
2008,04,24,11,43,10.80
2008,04,24,11,44,10.80
2008,04,24,11,45,10.80
2008,04,24,11,46,10.80
2008,04,24,11,47,10.90
2008,04,24,11,48,10.90
2008,04,24,11,49,10.80
2008,04,24,11,50,10.90
2008,04,24,11,51,10.90
2008,04,24,11,52,10.90
2008,04,24,11,53,10.90
2008,04,24,11,54,10.90
2008,04,24,11,55,11.00
2008,04,24,11,56,11.10
2008,04,24,11,57,11.00
2008,04,24,11,58,10.90
2008,04,24,11,59,10.70
2008,04,24,12,00,10.70
2008,04,24,12,01,10.70
2008,04,24,12,02,10.70
2008,04,24,12,03,10.70
2008,04,24,12,04,10.70
2008,04,24,12,05,10.80
2008,04,24,12,06,10.80
2008,04,24,12,07,10.80
2008,04,24,12,08,10.80
2008,04,24,12,09,10.80
2008,04,24,12,10,10.80
2008,04,24,12,11,10.80
2008,04,24,12,12,10.90
2008,04,24,12,13,10.90
2008,04,24,12,14,11.00
2008,04,24,12,15,11.00
2008,04,24,12,16,11.00
2008,04,24,12,17,11.00
2008,04,24,12,18,10.90
2008,04,24,12,19,10.80
2008,04,24,12,20,10.70
2008,04,24,12,21,10.60
2008,04,24,12,22,10.50
2008,04,24,12,23,10.50
2008,04,24,12,24,10.50
2008,04,24,12,25,10.40
2008,04,24,12,26,10.40
2008,04,24,12,27,10.50
2008,04,24,12,28,10.50
2008,04,24,12,29,10.50
2008,04,24,12,30,10.60
2008,04,24,12,31,10.60
2008,04,24,12,32,10.60
2008,04,24,12,33,10.60
2008,04,24,12,34,10.60
2008,04,24,12,35,10.60
2008,04,24,12,36,10.60
2008,04,24,12,37,10.50
2008,04,24,12,38,10.50
2008,04,24,12,39,10.60
2008,04,24,12,40,10.50
2008,04,24,12,41,10.40
2008,04,24,12,42,10.40
2008,04,24,12,43,10.50
2008,04,24,12,44,10.50
2008,04,24,12,45,10.50
2008,04,24,12,46,10.60
2008,04,24,12,47,10.50
2008,04,24,12,48,10.40
2008,04,24,12,49,10.40
2008,04,24,12,50,10.50
2008,04,24,12,51,10.50
2008,04,24,12,52,10.50
2008,04,24,12,53,10.60
2008,04,24,12,54,10.60
2008,04,24,12,55,10.60
2008,04,24,12,56,10.60
2008,04,24,12,57,10.70
2008,04,24,12,58,10.70
2008,04,24,12,59,10.70
2008,04,24,13,00,10.70
2008,04,24,13,01,10.70
2008,04,24,13,02,10.70
2008,04,24,13,03,10.70
2008,04,24,13,04,10.70
2008,04,24,13,05,10.60
2008,04,24,13,06,10.50
2008,04,24,13,07,10.40
2008,04,24,13,08,10.30
2008,04,24,13,09,10.20
2008,04,24,13,10,10.20
2008,04,24,13,11,10.20
2008,04,24,13,12,10.20
2008,04,24,13,13,10.20
2008,04,24,13,14,10.20
2008,04,24,13,15,10.20
2008,04,24,13,16,10.20
2008,04,24,13,17,10.20
2008,04,24,13,18,10.20
2008,04,24,13,19,10.20
2008,04,24,13,20,10.20
2008,04,24,13,21,10.10
2008,04,24,13,22,10.10
2008,04,24,13,23,10.20
2008,04,24,13,24,10.10
2008,04,24,13,25,10.10
2008,04,24,13,26,10.10
2008,04,24,13,27,10.00
2008,04,24,13,28,10.10
2008,04,24,13,29,10.10
2008,04,24,13,30,10.10
2008,04,24,13,31,10.10
2008,04,24,13,32,10.20
2008,04,24,13,33,10.20
2008,04,24,13,34,10.20
2008,04,24,13,35,10.20
2008,04,24,13,36,10.20
2008,04,24,13,37,10.20
2008,04,24,13,38,10.20
2008,04,24,13,39,10.20
2008,04,24,13,40,10.20
2008,04,24,13,41,10.30
2008,04,24,13,42,10.30
2008,04,24,13,43,10.40
2008,04,24,13,44,10.40
2008,04,24,13,45,10.50
2008,04,24,13,46,10.60
2008,04,24,13,47,10.70
2008,04,24,13,48,10.70
2008,04,24,13,49,10.70
2008,04,24,13,50,10.60
2008,04,24,13,51,10.60
2008,04,24,13,52,10.60
2008,04,24,13,53,10.60
2008,04,24,13,54,10.60
2008,04,24,13,55,10.60
2008,04,24,13,56,10.70
2008,04,24,13,57,10.70
2008,04,24,13,58,10.80
2008,04,24,13,59,10.80
2008,04,24,14,00,10.80
2008,04,24,14,01,10.80
2008,04,24,14,02,10.70
2008,04,24,14,03,10.70
2008,04,24,14,04,10.60
2008,04,24,14,05,10.60
2008,04,24,14,06,10.50
2008,04,24,14,07,10.40
2008,04,24,14,08,10.40
2008,04,24,14,09,10.40
2008,04,24,14,10,10.40
2008,04,24,14,11,10.30
2008,04,24,14,12,10.20
2008,04,24,14,13,10.20
2008,04,24,14,14,10.20
2008,04,24,14,15,10.20
2008,04,24,14,16,10.30
2008,04,24,14,17,10.30
2008,04,24,14,18,10.30
2008,04,24,14,19,10.30
2008,04,24,14,20,10.20
2008,04,24,14,21,10.10
2008,04,24,14,22,10.10
2008,04,24,14,23,10.10
2008,04,24,14,24,10.00
2008,04,24,14,25,10.00
2008,04,24,14,26,10.00
2008,04,24,14,27,9.90
2008,04,24,14,28,9.90
2008,04,24,14,29,10.00
2008,04,24,14,30,10.00
2008,04,24,14,31,10.10
2008,04,24,14,32,10.10
2008,04,24,14,33,10.00
2008,04,24,14,34,10.00
2008,04,24,14,35,10.00
2008,04,24,14,36,10.00
2008,04,24,14,37,10.00
2008,04,24,14,38,10.00
2008,04,24,14,39,10.10
2008,04,24,14,40,10.10
2008,04,24,14,41,10.10
2008,04,24,14,42,10.10
2008,04,24,14,43,10.10
2008,04,24,14,44,10.10
2008,04,24,14,45,10.10
2008,04,24,14,46,10.00
2008,04,24,14,47,9.90
2008,04,24,14,48,9.90
2008,04,24,14,49,9.90
2008,04,24,14,50,9.90
2008,04,24,14,51,9.90
2008,04,24,14,52,9.90
2008,04,24,14,53,10.00
2008,04,24,14,54,10.10
2008,04,24,14,55,10.10
2008,04,24,14,56,10.20
2008,04,24,14,57,10.30
2008,04,24,14,58,10.30
2008,04,24,14,59,10.40
2008,04,24,15,00,10.40
2008,04,24,15,01,10.40
2008,04,24,15,02,10.40
2008,04,24,15,03,10.40
2008,04,24,15,04,10.40
2008,04,24,15,05,10.30
2008,04,24,15,06,10.30
2008,04,24,15,07,10.20
2008,04,24,15,08,10.10
2008,04,24,15,09,10.00
2008,04,24,15,10,9.90
2008,04,24,15,11,9.90
2008,04,24,15,12,9.80
2008,04,24,15,13,9.80
2008,04,24,15,14,9.80
2008,04,24,15,15,9.80
2008,04,24,15,16,9.80
2008,04,24,15,17,9.80
2008,04,24,15,18,9.80
2008,04,24,15,19,9.80
2008,04,24,15,20,9.80
2008,04,24,15,21,9.80
2008,04,24,15,22,9.80
2008,04,24,15,23,9.80
2008,04,24,15,24,9.70
2008,04,24,15,25,9.70
2008,04,24,15,26,9.70
2008,04,24,15,27,9.60
2008,04,24,15,28,9.60
2008,04,24,15,29,9.50
2008,04,24,15,30,9.50
2008,04,24,15,31,9.50
2008,04,24,15,32,9.50
2008,04,24,15,33,9.50
2008,04,24,15,34,9.40
2008,04,24,15,35,9.40
2008,04,24,15,36,9.50
2008,04,24,15,37,9.50
2008,04,24,15,38,9.50
2008,04,24,15,39,9.50
2008,04,24,15,40,9.50
2008,04,24,15,41,9.50
2008,04,24,15,42,9.50
2008,04,24,15,43,9.50
2008,04,24,15,44,9.40
2008,04,24,15,45,9.40
2008,04,24,15,46,9.50
2008,04,24,15,47,9.50
2008,04,24,15,48,9.50
2008,04,24,15,49,9.50
2008,04,24,15,50,9.50
2008,04,24,15,51,9.50
2008,04,24,15,52,9.60
2008,04,24,15,53,9.60
2008,04,24,15,54,9.60
2008,04,24,15,55,9.60
2008,04,24,15,56,9.60
2008,04,24,15,57,9.60
2008,04,24,15,58,9.50
2008,04,24,15,59,9.50
2008,04,24,16,00,9.40
2008,04,24,16,01,9.40
2008,04,24,16,02,9.40
2008,04,24,16,03,9.40
2008,04,24,16,04,9.40
2008,04,24,16,05,9.30
2008,04,24,16,06,9.30
2008,04,24,16,07,9.40
2008,04,24,16,08,9.40
2008,04,24,16,09,9.40
2008,04,24,16,10,9.40
2008,04,24,16,11,9.40
2008,04,24,16,12,9.40
2008,04,24,16,13,9.30
2008,04,24,16,14,9.30
2008,04,24,16,15,9.30
2008,04,24,16,16,9.30
2008,04,24,16,17,9.30
2008,04,24,16,18,9.30
2008,04,24,16,19,9.30
2008,04,24,16,20,9.40
2008,04,24,16,21,9.30
2008,04,24,16,22,9.30
2008,04,24,16,23,9.30
2008,04,24,16,24,9.30
2008,04,24,16,25,9.30
2008,04,24,16,26,9.20
2008,04,24,16,27,9.20
2008,04,24,16,28,9.20
2008,04,24,16,29,9.20
2008,04,24,16,30,9.20
2008,04,24,16,31,9.20
2008,04,24,16,32,9.20
2008,04,24,16,33,9.20
2008,04,24,16,34,9.20
2008,04,24,16,35,9.20
2008,04,24,16,36,9.20
2008,04,24,16,37,9.30
2008,04,24,16,38,9.30
2008,04,24,16,39,9.20
2008,04,24,16,40,9.20
2008,04,24,16,41,9.20
2008,04,24,16,42,9.30
2008,04,24,16,43,9.30
2008,04,24,16,44,9.30
2008,04,24,16,45,9.30
2008,04,24,16,46,9.30
2008,04,24,16,47,9.30
2008,04,24,16,48,9.30
2008,04,24,16,49,9.30
2008,04,24,16,50,9.30
2008,04,24,16,51,9.30
2008,04,24,16,52,9.30
2008,04,24,16,53,9.30
2008,04,24,16,54,9.30
2008,04,24,16,55,9.30
2008,04,24,16,56,9.20
2008,04,24,16,57,9.20
2008,04,24,16,58,9.20
2008,04,24,16,59,9.20
2008,04,24,17,00,9.20
2008,04,24,17,01,9.20
2008,04,24,17,02,9.20
2008,04,24,17,03,9.30
2008,04,24,17,04,9.30
2008,04,24,17,05,9.30
2008,04,24,17,06,9.30
2008,04,24,17,07,9.30
2008,04,24,17,08,9.30
2008,04,24,17,09,9.30
2008,04,24,17,10,9.30
2008,04,24,17,11,9.30
2008,04,24,17,12,9.30
2008,04,24,17,13,9.20
2008,04,24,17,14,9.20
2008,04,24,17,15,9.20
2008,04,24,17,16,9.20
2008,04,24,17,17,9.20
2008,04,24,17,18,9.10
2008,04,24,17,19,9.10
2008,04,24,17,20,9.10
2008,04,24,17,21,9.10
2008,04,24,17,22,9.10
2008,04,24,17,23,9.10
2008,04,24,17,24,9.10
2008,04,24,17,25,9.20
2008,04,24,17,26,9.20
2008,04,24,17,27,9.30
2008,04,24,17,28,9.40
2008,04,24,17,29,9.40
2008,04,24,17,30,9.50
2008,04,24,17,31,9.40
2008,04,24,17,32,9.40
2008,04,24,17,33,9.40
2008,04,24,17,34,9.50
2008,04,24,17,35,9.50
2008,04,24,17,36,9.60
2008,04,24,17,37,9.60
2008,04,24,17,38,9.70
2008,04,24,17,39,9.70
2008,04,24,17,40,9.70
2008,04,24,17,41,9.70
2008,04,24,17,42,9.70
2008,04,24,17,43,9.70
2008,04,24,17,44,9.60
2008,04,24,17,45,9.60
2008,04,24,17,46,9.60
2008,04,24,17,47,9.50
2008,04,24,17,48,9.40
2008,04,24,17,49,9.40
2008,04,24,17,50,9.30
2008,04,24,17,51,9.30
2008,04,24,17,52,9.30